STARLINK-1272, 45386

Orbit data source: Space-Track

STARLINK-1272, 45386 is a payload satellite owned by SpaceX/Seattle (US) in LEO that was launched on Wed, 18 Mar 2020 UTC via an FALCON 9 launch vehicle from the Air Force Eastern Test Range (AFETR). Payload-class satellites include a variety of spacecraft equipped with specific instruments for various scientific and technological missions. These include communications satellites like Starlink; space stations such as the ISS; scientific satellites like the Hubble; Earth observation satellites from companies like Planet Labs, Umbra, and HawkEye 360; GPS; miniature CubeSats for education and research; and military/defense satellites.

Loading next visibility...
Identifier
45386, 2020-019AC
Orbit
LEO
Last TLE update
18 hours ago
Origin
Manufacturer
SpaceX/Seattle
Mission
Operational Commercial Communications
Bus & Motor
STARLINK, Unknown motor
Mass
260 kg wet, ~248 kg dry
Launch date (UTC)
2020-03-18 (5 years ago)
Launch vehicle
FALCON 9
Launch site
Air Force Eastern Test Range (AFETR)
Object type
Payload
Rocket body
Debris
Shape & HBR
Box + 1 Pan, 8.86 m
Radar Cross Section
13.562 m², Large (>1 m²)

Expand to show TLE details & history

TLE from 18 hours ago
0 STARLINK-1272
1 45386U 20019AC  25128.54603920  .00000160  00000-0  29671-4 0  9991
2 45386  53.0567  76.4581 0001516  93.3613 266.7549 15.06399647284017
Epoch: 2025-05-08T13:06Z
Definitive object data (Epoch: 2025-05-08T13:06:17.786Z)
Latitude
-0.00008°
Longitude
13.26895°
Altitude
548.152 km
Speed
7.589 km/s
True Right ascension
05h 05m 49s
True Declination
0° 00' 00"
Sunlit
Object was in daylight at TLE epoch
Visualization TLE readout
Latitude
48.09194°
Longitude
66.3743°
Altitude
551.661 km
Speed
7.592 km/s
Apparent Right ascension
05h 45m 37s
Apparent Declination
8° 29' 59"
Sunlit
Object is in daylight
Visualization observer readout
Local Sidereal Time
15:04:14
Azimuth
312.997° NW
Elevation
-28.9°
Doppler factor
1
Orbital elements
Apogee altitude
548.533 km
Perigee altitude
546.433 km
Semi-major axis
6,925.62 km
Eccentricity
0.0001516
Inclination
53.0567°
RAAN
76.4581°
Arg. of periapsis
93.3613°
True anomaly
266.73756°
Mean anomaly
266.7549°
Eccentric anomaly
266.74623°
Mean motion
3.76578 °/min
BSTAR
0.000029671
Orbital period
95.6 mins
Loading maneuver chart data...
Loading SW <> Apogee altitude chart data...
Loading historical data...
Loading historical data...
Loading historical data...
Loading historical data...
Loading historical data...
Loading historical data...
Loading historical data...

STARLINK-1272 Visibility forecast

Observer location: undefined°, undefined°

Span
Click to sort rows by Start time (UTC) header in descending order
Start Az.
Max El. time (UTC)
Max El. Az.
Max El.
End time (UTC)
End Az.
6 mins2025-05-09 07:10:19.285Z280.515° WNW2025-05-09 07:13:19.285Z226.08° WSW22.25°2025-05-09 07:16:19.285Z177.14° S
6 mins2025-05-09 22:43:19.285Z213.242° SW2025-05-09 22:46:19.285Z112.874° SE41.099°2025-05-09 22:49:19.285Z57.866° ENE
4 mins2025-05-10 00:24:19.285Z300.857° NW2025-05-10 00:26:19.285Z346.737° N22.761°2025-05-10 00:28:19.285Z22.635° NE
6 mins2025-05-10 05:25:19.285Z322.309° NNW2025-05-10 05:27:19.285Z16.006° NNE41.214°2025-05-10 05:31:19.285Z118.176° SE
|